EW1423 Weather Reports


time (UTC)temp
C
wind
direction
speed
KPH
gust
KPH
rain 1hr
cm
rain 24hr
cm
rain mn
cm
humidity
%
barometer
mb
20260904080804 23 173 0.0 1.6 0.00 0.00 0.00 67 1019.6
20260904075306 22 78 0.0 1.6 0.00 0.00 0.00 69 1019.6
20260904074803 22 163 0.0 1.6 0.00 0.00 0.00 70 1019.6
20260904074303 21 91 0.0 0.0 0.00 0.00 0.00 70 1019.7
20260904073804 21 54 0.0 1.6 0.00 0.00 0.00 72 1019.7
20260904073303 21 91 0.0 1.6 0.00 0.00 0.00 73 1019.7
20260904072804 21 107 0.0 0.0 0.00 0.00 0.00 74 1019.7
20260904072306 20 96 0.0 0.0 0.00 0.00 0.00 74 1020.1
20260904071804 20 98 0.0 0.0 0.00 0.00 0.00 74 1020.1
20260904070303 20 80 0.0 0.0 0.00 0.00 0.00 76 1020.1
20260904065803 19 80 0.0 0.0 0.00 0.00 0.00 78 1020.1
20260904064803 18 67 0.0 0.0 0.00 0.00 0.00 80 1020.1
20260904064304 18 84 0.0 0.0 0.00 0.00 0.00 80 1020.1
20260904063804 18 189 0.0 0.0 0.00 0.00 0.00 82 1020.1
20260904063304 17 189 0.0 0.0 0.00 0.00 0.00 82 1020.1
20260904062803 17 189 0.0 0.0 0.00 0.00 0.00 83 1020.2
20260904062306 17 158 0.0 1.6 0.00 0.00 0.00 83 1020.3
20260904061803 17 156 0.0 0.0 0.00 0.00 0.00 85 1020.3
20260904060804 16 156 0.0 0.0 0.00 0.00 0.00 87 1020.3
20260904055804 16 156 0.0 0.0 0.00 0.00 0.00 88 1020.3
20260904054803 15 156 0.0 0.0 0.00 0.00 0.00 89 1020.3
20260904054303 15 156 0.0 0.0 0.00 0.00 0.00 89 1020.3
20260904053804 15 156 0.0 0.0 0.00 0.00 0.00 91 1020.3
20260904053303 15 156 0.0 0.0 0.00 0.00 0.00 91 1020.3
20260904052804 15 156 0.0 0.0 0.00 0.00 0.00 91 1020.2
20260904052306 15 156 0.0 0.0 0.00 0.00 0.00 92 1020.2
20260904051804 15 156 0.0 0.0 0.00 0.00 0.00 93 1020.2
20260904051304 15 156 0.0 0.0 0.00 0.00 0.00 92 1020.2
20260904050804 15 156 0.0 0.0 0.00 0.00 0.00 92 1020.2
20260904050303 15 156 0.0 0.0 0.00 0.00 0.00 92 1020.2
20260904045803 15 156 0.0 0.0 0.00 0.00 0.00 92 1020.2
20260904045306 15 156 0.0 0.0 0.00 0.00 0.00 91 1020.2
20260904044804 15 156 0.0 0.0 0.00 0.00 0.00 92 1020.2
20260904043303 15 156 0.0 0.0 0.00 0.00 0.00 91 1020.2
20260904042803 15 156 0.0 0.0 0.00 0.00 0.00 91 1020.8
20260904042306 15 156 0.0 0.0 0.00 0.00 0.00 91 1020.8
20260904041803 15 156 0.0 0.0 0.00 0.00 0.00 90 1020.8
20260904041304 15 156 0.0 0.0 0.00 0.00 0.00 89 1020.8
20260904040804 15 156 0.0 0.0 0.00 0.00 0.00 88 1020.8
20260904040303 16 156 0.0 0.0 0.00 0.00 0.00 87 1020.8
20260904035803 16 156 0.0 0.0 0.00 0.00 0.00 86 1020.8
20260904035306 16 156 0.0 0.0 0.00 0.00 0.00 86 1020.8
20260904034803 16 156 0.0 0.0 0.00 0.00 0.00 86 1020.8
20260904034304 16 156 0.0 0.0 0.00 0.00 0.00 87 1020.8
20260904033803 16 156 0.0 0.0 0.00 0.00 0.00 87 1020.8
20260904033303 16 156 0.0 0.0 0.00 0.00 0.00 86 1020.8
20260904032803 16 156 0.0 0.0 0.00 0.00 0.00 86 1020.8
20260904032305 16 156 0.0 0.0 0.00 0.00 0.00 86 1020.9
20260904031303 16 170 0.0 0.0 0.00 0.00 0.00 87 1020.9
20260904030804 16 171 0.0 0.0 0.00 0.00 0.00 87 1021.2
20260904030304 16 200 0.0 0.0 0.00 0.00 0.00 86 1021.2
20260904025803 16 200 0.0 0.0 0.00 0.00 0.00 86 1021.2
20260904025306 16 227 0.0 0.0 0.00 0.00 0.00 87 1021.2
20260904024803 16 227 0.0 0.0 0.00 0.00 0.00 87 1021.2
20260904024303 16 227 0.0 0.0 0.00 0.00 0.00 88 1021.2
20260904023304 16 227 0.0 0.0 0.00 0.00 0.00 88 1021.3
20260904022804 15 227 0.0 0.0 0.00 0.00 0.00 90 1021.3
20260904022306 15 227 0.0 0.0 0.00 0.00 0.00 90 1021.3
20260904021804 15 227 0.0 0.0 0.00 0.00 0.00 91 1021.3
20260904021304 15 227 0.0 0.0 0.00 0.00 0.00 90 1021.3
20260904020804 15 227 0.0 0.0 0.00 0.00 0.00 90 1021.3
20260904020303 15 227 0.0 0.0 0.00 0.00 0.00 90 1021.3
20260904015804 15 227 0.0 0.0 0.00 0.00 0.00 90 1021.3
20260904015306 15 227 0.0 0.0 0.00 0.00 0.00 89 1021.3
20260904014803 15 227 0.0 0.0 0.00 0.00 0.00 89 1021.3
20260904014304 15 227 0.0 0.0 0.00 0.00 0.00 88 1021.3
20260904013804 15 227 0.0 0.0 0.00 0.00 0.00 88 1021.3
20260904013304 16 227 0.0 0.0 0.00 0.00 0.00 88 1021.3
20260904011803 15 263 0.0 0.0 0.00 0.00 0.00 90 1021.3
20260904010804 16 263 0.0 0.0 0.00 0.00 0.00 89 1021.3
20260904010304 16 263 0.0 0.0 0.00 0.00 0.00 88 1021.3
20260904005803 16 263 0.0 0.0 0.00 0.00 0.00 87 1021.6
20260904005306 16 263 0.0 0.0 0.00 0.00 0.00 87 1021.6
20260904004804 16 263 0.0 0.0 0.00 0.00 0.00 88 1021.6
20260904004303 16 263 0.0 0.0 0.00 0.00 0.00 88 1021.6
20260904002804 16 263 0.0 0.0 0.00 0.00 0.00 88 1021.6
20260904001804 16 263 0.0 0.0 0.00 0.00 0.00 89 1021.8
20260904000803 16 263 0.0 0.0 0.00 0.00 0.00 88 1021.8
20260904000304 16 263 0.0 0.0 0.00 0.00 0.00 88 1021.9
20260903235804 16 263 0.0 0.0 0.00 0.00 0.00 87 1021.9
20260903235305 16 263 0.0 0.0 0.00 0.00 0.00 87 1021.9
20260903234304 16 263 0.0 0.0 0.00 0.00 0.00 86 1022.0
20260903233804 16 263 0.0 0.0 0.00 0.00 0.00 86 1022.0
20260903232804 17 263 0.0 0.0 0.00 0.00 0.00 85 1022.0
20260903232306 17 263 0.0 0.0 0.00 0.00 0.00 84 1022.0
20260903231804 17 263 0.0 0.0 0.00 0.00 0.00 84 1022.0
20260903231303 17 263 0.0 0.0 0.00 0.00 0.00 83 1021.7
20260903230803 17 263 0.0 0.0 0.00 0.00 0.00 82 1021.7
20260903225804 17 263 0.0 0.0 0.00 0.00 0.00 80 1021.7
20260903225306 17 263 0.0 0.0 0.00 0.00 0.00 81 1021.7
20260903224804 17 294 0.0 0.0 0.00 0.00 0.00 82 1021.7
20260903224303 17 298 0.0 0.0 0.00 0.00 0.00 82 1021.7
20260903223804 17 298 0.0 0.0 0.00 0.00 0.00 83 1021.7
20260903222803 17 298 0.0 0.0 0.00 0.00 0.00 84 1021.7
20260903222305 17 298 0.0 0.0 0.00 0.00 0.00 84 1021.7
20260903221804 17 298 0.0 0.0 0.00 0.00 0.00 83 1021.7
20260903221303 17 298 0.0 0.0 0.00 0.00 0.00 83 1021.7
20260903220810 17 298 0.0 0.0 0.00 0.00 0.00 84 1021.7
20260903220304 16 298 0.0 0.0 0.00 0.00 0.00 85 1021.7
20260903215803 16 298 0.0 0.0 0.00 0.00 0.00 85 1021.7
20260903215306 17 298 0.0 0.0 0.00 0.00 0.00 85 1021.7
20260903214804 17 298 0.0 0.0 0.00 0.00 0.00 85 1021.7
20260903214304 17 298 0.0 0.0 0.00 0.00 0.00 84 1021.7
20260903213804 17 298 0.0 0.0 0.00 0.00 0.00 83 1021.7
20260903213304 17 298 0.0 0.0 0.00 0.00 0.00 83 1021.7
20260903212306 17 298 0.0 0.0 0.00 0.00 0.00 84 1021.7
20260903211804 17 298 0.0 0.0 0.00 0.00 0.00 84 1021.7
20260903210804 17 298 0.0 0.0 0.00 0.00 0.00 84 1021.7
20260903205804 17 298 0.0 0.0 0.00 0.00 0.00 83 1021.7
20260903205306 17 298 0.0 0.0 0.00 0.00 0.00 83 1021.7
20260903204804 18 298 0.0 0.0 0.00 0.00 0.00 83 1021.7
20260903204303 18 298 0.0 0.0 0.00 0.00 0.00 82 1021.7
20260903203304 18 298 0.0 0.0 0.00 0.00 0.00 80 1021.7
20260903202803 18 298 0.0 0.0 0.00 0.00 0.00 79 1021.9
20260903202306 18 298 0.0 0.0 0.00 0.00 0.00 78 1021.9
20260903201803 18 298 0.0 0.0 0.00 0.00 0.00 79 1021.9
20260903201303 19 298 0.0 0.0 0.00 0.00 0.00 80 1021.9
20260903200803 19 298 0.0 0.0 0.00 0.00 0.00 79 1021.9
20260903200303 19 298 0.0 0.0 0.00 0.00 0.00 78 1021.9
20260903195306 19 298 0.0 0.0 0.00 0.00 0.00 79 1021.9
20260903194804 19 298 0.0 0.0 0.00 0.00 0.00 77 1021.9
20260903194304 18 298 0.0 0.0 0.00 0.00 0.00 78 1021.9
20260903193804 18 298 0.0 0.0 0.00 0.00 0.00 78 1021.9
20260903193304 18 298 0.0 0.0 0.00 0.00 0.00 78 1021.8
20260903191804 19 298 0.0 0.0 0.00 0.00 0.00 77 1021.6
20260903191305 19 298 0.0 0.0 0.00 0.00 0.00 76 1021.5
20260903190804 19 298 0.0 0.0 0.00 0.00 0.00 77 1021.5
20260903190303 19 298 0.0 0.0 0.00 0.00 0.00 77 1021.5
20260903185803 20 298 0.0 0.0 0.00 0.00 0.00 77 1021.5
20260903185306 20 298 0.0 0.0 0.00 0.00 0.00 77 1020.8
20260903184803 20 298 0.0 0.0 0.00 0.00 0.00 76 1020.8
20260903184303 20 298 0.0 0.0 0.00 0.00 0.00 75 1020.8
20260903183803 20 298 0.0 0.0 0.00 0.00 0.00 77 1020.8
20260903182803 21 298 0.0 0.0 0.00 0.00 0.00 73 1020.8
20260903181304 21 298 0.0 0.0 0.00 0.00 0.00 71 1020.8
20260903180804 22 298 0.0 0.0 0.00 0.00 0.00 70 1020.8
20260903180304 22 298 0.0 0.0 0.00 0.00 0.00 71 1020.8
20260903175803 22 298 0.0 0.0 0.00 0.00 0.00 70 1020.8
20260903174804 22 298 0.0 0.0 0.00 0.00 0.00 66 1020.8
20260903174303 22 298 0.0 0.0 0.00 0.00 0.00 67 1020.8
20260903173803 22 298 0.0 0.0 0.00 0.00 0.00 65 1020.8
20260903173303 23 298 0.0 0.0 0.00 0.00 0.00 65 1020.8
20260903172306 23 298 0.0 0.0 0.00 0.00 0.00 62 1020.8
20260903171803 23 298 0.0 0.0 0.00 0.00 0.00 63 1020.8
20260903171303 23 298 0.0 0.0 0.00 0.00 0.00 61 1020.7
20260903170804 23 298 0.0 0.0 0.00 0.00 0.00 57 1020.7
20260903170303 24 298 0.0 0.0 0.00 0.00 0.00 59 1020.7
20260903165804 24 298 0.0 0.0 0.00 0.00 0.00 58 1020.6
20260903165305 25 298 0.0 0.0 0.00 0.00 0.00 52 1020.7
20260903164804 25 298 0.0 0.0 0.00 0.00 0.00 51 1020.7
20260903164303 25 298 0.0 0.0 0.00 0.00 0.00 51 1020.7
20260903163804 25 266 0.0 0.0 0.00 0.00 0.00 52 1020.7
20260903162803 25 334 1.6 4.8 0.00 0.00 0.00 51 1020.7
20260903162306 25 283 0.0 4.8 0.00 0.00 0.00 50 1020.7
20260903161803 25 269 1.6 11.3 0.00 0.00 0.00 50 1020.7
20260903160304 26 264 1.6 8.0 0.00 0.00 0.00 49 1020.7
20260903155803 26 277 0.0 1.6 0.00 0.00 0.00 48 1020.7
20260903155306 26 270 0.0 1.6 0.00 0.00 0.00 47 1020.7
20260903154804 26 323 0.0 1.6 0.00 0.00 0.00 47 1020.8
20260903154304 26 270 0.0 4.8 0.00 0.00 0.00 47 1020.8
20260903153804 26 297 1.6 9.7 0.00 0.00 0.00 48 1020.9
20260903153303 27 317 1.6 8.0 0.00 0.00 0.00 47 1020.9
20260903152804 27 273 0.0 8.0 0.00 0.00 0.00 47 1020.9
20260903152306 27 285 1.6 8.0 0.00 0.00 0.00 46 1020.9
20260903151804 27 289 0.0 1.6 0.00 0.00 0.00 47 1020.9
20260903151304 27 297 0.0 8.0 0.00 0.00 0.00 48 1020.9
20260903150803 26 291 0.0 1.6 0.00 0.00 0.00 48 1021.1
20260903150304 26 315 1.6 8.0 0.00 0.00 0.00 48 1021.1
20260903145804 27 305 0.0 0.0 0.00 0.00 0.00 48 1021.0
20260903145306 27 308 0.0 1.6 0.00 0.00 0.00 49 1021.0
20260903144803 27 328 0.0 8.0 0.00 0.00 0.00 47 1021.0
20260903144304 27 282 1.6 4.8 0.00 0.00 0.00 46 1021.0
20260903143804 26 311 0.0 4.8 0.00 0.00 0.00 47 1021.0
20260903143303 27 316 0.0 11.3 0.00 0.00 0.00 47 1021.0
20260903142804 27 278 1.6 9.7 0.00 0.00 0.00 46 1021.0
20260903142306 27 282 1.6 8.0 0.00 0.00 0.00 45 1020.8
20260903141804 27 233 3.2 11.3 0.00 0.00 0.00 44 1020.9
20260903141303 27 319 0.0 8.0 0.00 0.00 0.00 47 1020.9
20260903140303 27 349 1.6 8.0 0.00 0.00 0.00 46 1021.0
20260903135803 27 290 3.2 9.7 0.00 0.00 0.00 44 1021.1
20260903135306 27 259 1.6 8.0 0.00 0.00 0.00 46 1021.1
20260903134804 27 144 3.2 11.3 0.00 0.00 0.00 46 1021.1
20260903134303 27 276 3.2 11.3 0.00 0.00 0.00 45 1021.1
20260903133804 27 298 0.0 4.8 0.00 0.00 0.00 45 1021.1
20260903133304 28 3 1.6 8.0 0.00 0.00 0.00 45 1021.1
20260903132803 28 267 0.0 4.8 0.00 0.00 0.00 44 1021.4
20260903132306 28 313 0.0 1.6 0.00 0.00 0.00 42 1021.4
20260903131803 28 339 0.0 4.8 0.00 0.00 0.00 46 1021.4
20260903131304 28 2 1.6 14.5 0.00 0.00 0.00 44 1021.4
20260903130804 27 324 1.6 8.0 0.00 0.00 0.00 48 1021.3
20260903130304 27 268 1.6 8.0 0.00 0.00 0.00 47 1021.3
20260903125305 26 266 0.0 9.7 0.00 0.00 0.00 49 1021.3
20260903124804 26 288 1.6 8.0 0.00 0.00 0.00 48 1021.4
20260903124304 26 275 0.0 0.0 0.00 0.00 0.00 48 1021.4
20260903123804 26 263 0.0 0.0 0.00 0.00 0.00 48 1021.4
20260903123303 26 101 0.0 3.2 0.00 0.00 0.00 48 1021.4
20260903122803 26 11 0.0 1.6 0.00 0.00 0.00 47 1021.4
20260903122305 26 323 1.6 4.8 0.00 0.00 0.00 47 1021.5
20260903121804 27 298 0.0 3.2 0.00 0.00 0.00 47 1021.5
20260903121303 27 328 0.0 1.6 0.00 0.00 0.00 48 1021.5
20260903120804 27 191 0.0 0.0 0.00 0.00 0.00 48 1021.5
20260903115805 26 113 0.0 1.6 0.00 0.00 0.00 50 1021.5
20260903115305 26 258 0.0 4.8 0.00 0.00 0.00 49 1021.7
20260903114805 26 266 1.6 8.0 0.00 0.00 0.00 50 1021.7
20260903114303 26 164 1.6 8.0 0.00 0.00 0.00 49 1021.7
20260903112803 26 247 0.0 3.2 0.00 0.00 0.00 52 1021.9
20260903112305 25 278 0.0 1.6 0.00 0.00 0.00 50 1021.9
20260903111803 26 261 0.0 3.2 0.00 0.00 0.00 51 1022.0
20260903111304 26 267 0.0 4.8 0.00 0.00 0.00 54 1022.0
20260903110804 26 247 0.0 1.6 0.00 0.00 0.00 52 1022.3
20260903110303 26 311 3.2 4.8 0.00 0.00 0.00 50 1022.3
20260903105803 26 247 0.0 3.2 0.00 0.00 0.00 52 1022.3
20260903105306 26 342 0.0 0.0 0.00 0.00 0.00 51 1022.3
20260903104806 26 275 0.0 4.8 0.00 0.00 0.00 52 1022.3
20260903104303 26 174 0.0 4.8 0.00 0.00 0.00 54 1022.4
20260903103803 26 35 0.0 1.6 0.00 0.00 0.00 52 1022.6
20260903103304 25 331 0.0 4.8 0.00 0.00 0.00 54 1022.6
20260903102804 25 319 0.0 0.0 0.00 0.00 0.00 54 1022.6
20260903102305 25 319 0.0 0.0 0.00 0.00 0.00 55 1022.6
20260903101804 25 327 0.0 1.6 0.00 0.00 0.00 55 1022.6
20260903101303 25 271 0.0 1.6 0.00 0.00 0.00 55 1022.7
20260903100305 25 244 1.6 4.8 0.00 0.00 0.00 55 1022.7
20260903095804 25 297 1.6 8.0 0.00 0.00 0.00 53 1022.7
20260903095305 25 260 1.6 8.0 0.00 0.00 0.00 53 1022.7
20260903094803 25 264 1.6 8.0 0.00 0.00 0.00 52 1022.7
20260903094303 25 297 1.6 8.0 0.00 0.00 0.00 54 1022.7
20260903093804 25 250 0.0 8.0 0.00 0.00 0.00 56 1023.1
20260903093304 25 313 1.6 9.7 0.00 0.00 0.00 54 1023.1
20260903092803 24 313 1.6 8.0 0.00 0.00 0.00 56 1023.1
20260903091304 23 296 1.6 8.0 0.00 0.00 0.00 57 1023.1
20260903090804 23 130 0.0 0.0 0.00 0.00 0.00 64 1023.1
20260903090303 22 17 1.6 8.0 0.00 0.00 0.00 64 1023.1
20260903085306 22 35 0.0 4.8 0.00 0.00 0.00 66 1022.9
20260903084804 22 64 1.6 4.8 0.00 0.00 0.00 69 1022.9
20260903084304 21 78 0.0 0.0 0.00 0.00 0.00 70 1022.9
20260903083803 21 78 1.6 4.8 0.00 0.00 0.00 71 1022.9
20260903083303 21 107 0.0 4.8 0.00 0.00 0.00 73 1022.8
20260903082803 21 61 1.6 4.8 0.00 0.00 0.00 73 1023.0
20260903082306 20 53 0.0 0.0 0.00 0.00 0.00 74 1023.0
20260903081803 20 53 0.0 0.0 0.00 0.00 0.00 74 1023.4